Simultaneous Nadir Overpasses (SNOs) Predictions

Prediction of SNOs over PacNW region [( 10.00, 139.50) to ( 22.70, 165.60)] between AQUA and NPP Satellites:

Table of predicted SNOs over PacNW region for the next 30.0 days since TLE Epoch: 3/17/2018
Index Date (AQUA) Time (AQUA) AQUA Lat,Lon Date (NPP) Time (NPP) NPP Lat,Lon Distance(km) Time Diff (sec)
1 03/24/2018 15:10:40 22.62, 159.84 03/24/2018 15:10:45 23.21, 157.29 269.27 5
2 04/01/2018 16:00:05 22.60, 147.48 04/01/2018 16:01:32 23.26, 144.60 303.81 87
3 04/09/2018 15:10:36 22.59, 159.85 04/09/2018 15:10:52 23.17, 157.25 273.80 16




NCC Satellite Simultaneous Nadir Overpasses (SNOs) Prediction Service
